Location: Newark
(15.4608°S, 41.1635°W)
Time: 20:14:49
(UTC+00:00)

N. Korean satellite - Pass Details

Date: 21 June 2021
Orbit: 451 x 497 km, 97.2° (Epoch: 28 July)

Event Time Altitude Azimuth Distance (km) Brightness Sun altitude
Rises 07:24:49 0° 16° (NNE) 2,569 10.7 -24.5°
Reaches altitude 10° 07:26:53 10° 19° (NNE) 1,694 9.8 -24.0°
Maximum altitude 07:30:30 67° 101° (E) 547 6.9 -23.2°
Enters shadow 07:30:46 64° 130° (SE) 559 6.8 -23.1°
